Wind_Speed
43 43 44 43 43 42 42 42 42 42 43 43 44 43 42 41 41 40 39 39 37 36 35 35 35 35 34 34 34 34 34 34 34 34 34 34 34 35 36 36 36 35 35
45 45 46 46 46 45 45 44 45 45 46 46 46 46 46 45 45 45 44 41 39 38 38 38 38 38 37 37 36 36 35 35 35 35 35 35 36 36 36 36 36 36 36
46 46 47 48 48 48 47 48 48 49 49 50 50 49 49 49 48 47 45 43 42 42 42 42 42 41 40 39 38 38 38 38 38 38 38 37 37 38 38 38 37 37 38
44 45 46 47 48 48 49 49 50 51 52 53 53 52 51 50 49 47 47 46 46 46 46 46 46 45 44 43 42 41 40 40 40 40 39 39 40 39 39 39 39 39 40
42 43 44 45 47 48 48 49 50 51 53 55 56 56 55 54 52 51 50 50 49 49 49 49 49 48 48 46 45 44 43 42 41 41 41 41 41 41 41 40 41 41 42
40 41 42 44 45 47 48 50 51 52 54 55 57 58 58 57 56 54 53 52 52 51 50 50 50 50 50 49 48 47 46 44 43 43 43 43 43 43 43 43 43 43 44
38 40 42 43 45 47 50 52 53 55 57 59 60 60 61 61 60 58 57 56 55 53 52 52 51 51 51 51 50 49 48 46 45 45 45 45 45 45 45 45 45 46 46
37 40 42 45 47 49 52 54 56 59 61 63 64 65 65 65 65 64 63 61 58 56 55 54 54 53 53 52 51 51 49 48 47 46 46 46 46 46 46 47 47 47 48
37 39 42 45 47 50 53 55 58 60 63 65 67 68 69 69 69 69 68 66 63 61 59 57 56 55 54 53 52 52 51 49 48 48 47 47 47 47 47 48 48 49 50
35 38 41 44 47 49 52 55 58 60 63 65 67 69 70 71 72 72 71 70 68 65 62 60 58 56 55 54 53 52 51 50 49 49 48 48 48 48 49 50 50 51 52
34 37 39 42 45 48 50 53 56 59 61 63 65 67 68 70 71 71 71 71 70 68 65 63 60 58 57 55 54 52 51 50 49 49 49 48 51 51 51 52 53 54 55
33 35 37 39 42 45 47 50 53 56 58 61 62 63 63 65 67 68 68 69 69 68 66 63 61 60 58 56 55 53 51 50 50 49 49 50 52 52 54 55 56 57 58
31 32 34 36 39 41 44 47 49 51 52 53 54 55 57 58 60 62 63 64 64 64 64 63 61 59 58 56 54 52 51 50 49 49 49 51 52 54 56 57 58 60 62
28 29 31 33 36 39 41 42 42 41 40 40 41 42 45 48 51 54 56 58 58 59 59 59 58 57 56 54 52 51 50 48 48 48 49 52 54 57 58 60 62 63 65
25 27 28 30 33 35 36 36 34 31 28 27 28 31 34 39 42 45 47 49 51 51 51 52 52 52 51 50 49 48 47 46 46 47 49 53 56 58 61 63 64 66 66
24 25 25 27 29 32 33 32 28 24 21 18 18 20 23 27 30 33 35 37 39 41 42 44 45 45 45 45 44 43 43 44 45 47 50 53 57 59 62 64 65 65 66
22 23 23 23 25 27 29 28 24 20 16 13 11 12 15 19 20 22 24 27 29 31 33 35 37 39 40 40 40 40 42 43 45 48 51 55 58 60 61 63 64 65 67
21 21 21 21 23 24 24 24 22 18 14 10 6 5 7 10 14 17 18 20 22 24 26 29 33 34 36 37 38 39 42 45 47 50 52 54 57 59 61 63 64 65 68
19 19 19 19 20 20 20 20 19 17 16 11 6 3 3 7 9 12 15 17 19 21 23 25 27 29 31 34 36 38 41 43 45 47 50 53 56 59 60 62 64 66 69
18 18 18 16 17 17 18 17 17 17 17 15 12 9 9 7 7 8 10 13 15 16 18 21 24 27 29 32 35 36 39 41 43 47 50 53 55 58 60 63 65 68 71
18 17 16 15 14 14 15 15 14 15 15 15 13 11 8 6 6 6 6 7 10 12 15 19 22 23 25 28 31 34 37 40 44 47 50 53 56 60 63 66 69 71 71
16 15 14 14 13 12 12 12 13 14 14 14 12 9 7 5 4 2 1 2 5 8 11 14 17 20 23 25 29 33 36 40 43 47 51 55 59 63 66 69 71 71 70
14 13 13 12 12 11 11 11 11 12 12 12 13 12 10 8 6 5 4 4 6 9 12 15 18 22 25 28 31 34 37 41 45 50 54 58 62 66 68 69 68 66 63
13 12 12 11 10 10 10 11 11 11 11 11 11 10 10 9 8 8 8 9 11 14 16 19 22 24 27 29 32 36 40 45 49 54 59 62 65 66 66 64 61 56 49
12 12 11 10 9 9 9 9 10 10 10 11 11 11 11 11 11 11 12 14 15 17 19 21 23 26 29 32 36 40 44 48 53 58 62 64 63 62 59 54 48 42 37
13 12 11 10 9 9 9 9 10 11 11 12 12 13 13 13 14 15 16 17 18 20 21 23 26 29 32 36 39 43 48 53 57 60 61 60 58 54 49 43 38 34 31
Wind_Direction
258 258 258 258 257 256 255 255 255 255 255 255 256 257 257 258 258 258 258 258 260 263 265 267 267 268 268 269 272 274 277 279 281 283 286 288 289 290 292 293 293 293 293
259 259 259 260 260 259 259 258 257 257 256 255 255 256 256 256 256 256 257 258 260 262 264 264 265 265 266 268 270 272 274 277 279 282 284 287 288 290 291 292 293 293 294
260 261 261 262 262 262 261 260 259 258 257 257 256 255 254 255 255 257 258 259 259 259 260 261 262 263 265 267 269 270 273 275 277 280 283 285 287 288 290 292 293 294 294
261 262 263 264 264 264 263 263 262 261 260 259 258 257 256 255 255 255 255 254 254 255 257 259 261 263 264 266 268 270 272 274 276 279 281 284 286 287 289 290 292 294 295
262 263 263 265 266 266 266 265 265 264 263 262 261 259 258 257 256 255 254 255 255 256 258 259 260 262 264 266 268 269 272 273 275 278 281 283 284 286 287 288 290 292 294
261 263 264 265 266 267 267 267 266 265 264 263 262 261 260 259 258 257 255 255 255 255 256 258 260 262 264 265 267 268 270 272 275 277 279 281 283 285 286 287 289 291 293
264 266 267 268 269 269 269 269 268 267 266 264 263 262 260 259 258 257 256 255 254 255 255 256 257 259 261 264 266 268 270 272 273 276 278 280 282 283 284 286 288 290 292
268 270 271 272 272 271 271 270 269 267 266 264 263 261 260 259 258 256 255 254 253 253 253 254 255 257 259 262 264 267 269 271 273 276 277 279 281 282 283 285 287 288 290
272 273 274 275 275 274 273 272 270 268 266 264 263 261 259 258 257 255 254 253 252 252 251 252 253 255 256 259 262 265 268 270 273 276 277 279 280 281 282 284 286 288 288
277 279 279 280 279 278 276 274 272 270 267 265 262 260 258 256 255 253 253 252 252 251 250 251 251 253 255 257 260 263 266 269 272 275 277 278 279 279 282 284 286 287 287
285 286 287 287 286 285 283 281 278 274 270 267 263 260 257 255 253 252 251 250 250 250 250 250 250 251 253 256 258 262 265 268 271 274 277 277 279 280 281 283 286 287 288
294 295 295 295 294 292 291 288 285 280 275 270 265 260 256 253 251 249 249 248 248 248 248 249 249 251 253 255 258 260 263 267 270 273 275 276 277 279 281 284 287 288 289
301 302 303 303 303 303 302 299 294 288 280 272 266 260 254 251 249 248 247 246 246 247 247 248 248 250 251 254 256 259 262 266 269 272 274 275 275 280 282 285 287 288 290
307 308 310 312 312 313 312 309 305 297 286 275 267 259 252 248 247 246 245 245 244 245 246 246 247 248 251 253 256 259 262 266 269 272 273 275 277 279 281 284 286 288 291
316 317 318 320 321 323 323 321 316 309 297 282 269 259 252 247 245 245 244 243 242 243 244 245 246 247 249 252 255 258 262 266 268 271 271 274 277 280 283 285 287 290 292
323 324 325 326 329 333 334 332 330 322 312 297 278 262 252 247 243 242 241 241 240 241 242 243 245 246 248 250 253 258 262 264 267 269 272 276 280 281 284 287 290 292 293
329 330 330 332 335 340 343 345 345 341 332 314 287 266 252 241 235 231 230 231 233 235 239 240 241 244 246 249 253 257 260 264 268 272 275 278 281 283 287 290 293 294 295
334 335 337 338 342 345 348 352 356 359 357 349 327 277 243 224 214 214 218 222 223 228 232 234 237 241 244 248 253 257 262 266 270 275 278 281 285 287 290 292 294 296 296
339 340 341 343 347 352 357 1 8 15 20 23 31 62 159 186 189 193 197 203 209 218 224 231 236 241 246 252 257 262 267 271 275 279 283 286 288 291 293 295 296 297 298
340 342 344 345 350 358 4 9 18 28 33 40 51 68 83 104 136 167 186 198 210 218 225 234 242 248 253 259 265 270 274 279 284 287 290 292 294 295 296 297 298 298 299
341 343 346 347 349 357 7 17 27 30 31 37 50 63 76 94 126 152 177 200 217 231 240 246 252 260 266 271 274 280 284 288 291 293 295 296 298 299 299 300 300 300 300
339 344 348 352 356 1 10 21 28 28 30 34 41 50 55 61 85 119 275 265 259 260 265 269 273 278 284 287 289 291 293 295 296 298 299 301 301 302 302 301 301 301 301
334 340 346 352 1 9 14 17 21 25 29 33 39 45 46 45 41 24 356 327 307 298 295 295 295 295 296 296 297 298 299 301 302 303 304 305 305 305 304 304 303 303 303
326 329 334 341 348 357 4 12 18 23 25 26 28 28 26 20 11 357 340 325 315 311 307 304 302 301 301 302 303 305 306 307 308 309 309 309 309 308 307 307 306 306 305
319 320 323 327 334 344 352 358 3 6 8 8 6 4 359 353 346 339 331 323 317 313 309 307 306 306 306 307 309 310 311 313 314 314 314 313 312 312 311 310 310 309 309
309 309 310 313 317 324 331 337 342 345 347 348 347 346 343 339 334 329 324 320 317 314 312 311 311 311 311 312 314 315 317 318 318 318 317 317 316 315 315 315 314 313 312
Height
5760 5760 5761 5762 5764 5765 5767 5768 5769 5770 5771 5772 5773 5774 5776 5777 5778 5779 5779 5780 5781 5782 5783 5784 5784 5784 5784 5784 5784 5784 5784 5784 5783 5782 5781 5780 5779 5777 5776 5774 5772 5770 5768
5752 5752 5752 5753 5754 5756 5757 5758 5759 5760 5761 5762 5764 5765 5766 5768 5768 5769 5770 5772 5774 5775 5775 5775 5775 5775 5776 5776 5776 5777 5776 5776 5776 5775 5774 5773 5772 5769 5768 5766 5764 5762 5760
5743 5743 5744 5744 5745 5746 5747 5748 5749 5749 5750 5751 5752 5754 5755 5757 5758 5760 5762 5764 5764 5765 5765 5765 5766 5767 5767 5768 5768 5768 5768 5768 5768 5767 5766 5765 5763 5761 5760 5758 5756 5754 5752
5734 5734 5735 5735 5735 5736 5736 5737 5738 5738 5739 5739 5741 5742 5745 5747 5749 5750 5751 5752 5753 5754 5755 5756 5757 5757 5758 5759 5759 5760 5760 5759 5759 5758 5757 5756 5755 5753 5751 5749 5747 5744 5742
5724 5725 5725 5725 5725 5725 5725 5726 5726 5726 5726 5727 5728 5730 5732 5734 5736 5737 5739 5740 5742 5743 5745 5746 5747 5748 5749 5750 5750 5750 5750 5750 5750 5749 5748 5746 5745 5743 5742 5740 5738 5735 5733
5715 5716 5716 5716 5715 5715 5714 5714 5714 5714 5713 5714 5714 5716 5718 5720 5722 5724 5726 5727 5729 5731 5733 5735 5736 5738 5738 5739 5739 5740 5740 5741 5740 5740 5738 5737 5735 5734 5732 5730 5727 5725 5722
5707 5707 5707 5706 5706 5705 5704 5703 5702 5701 5700 5699 5700 5701 5702 5704 5707 5709 5711 5713 5716 5719 5721 5723 5725 5726 5727 5728 5728 5729 5730 5730 5730 5729 5728 5727 5725 5723 5721 5719 5717 5714 5711
5699 5698 5697 5696 5695 5694 5692 5690 5688 5687 5685 5684 5684 5684 5686 5688 5690 5692 5694 5698 5702 5705 5708 5710 5712 5714 5715 5716 5717 5718 5719 5719 5719 5718 5717 5716 5714 5712 5710 5708 5705 5703 5700
5691 5689 5687 5685 5683 5681 5679 5676 5674 5671 5668 5667 5666 5666 5667 5669 5672 5674 5677 5681 5686 5689 5693 5696 5699 5701 5703 5705 5706 5707 5707 5708 5708 5707 5707 5705 5703 5701 5699 5696 5694 5691 5688
5681 5679 5676 5674 5671 5668 5664 5660 5657 5654 5650 5647 5646 5646 5647 5648 5651 5655 5659 5664 5669 5673 5678 5682 5685 5689 5691 5693 5695 5696 5696 5697 5696 5696 5695 5694 5691 5689 5687 5684 5681 5679 5675
5672 5669 5666 5662 5658 5653 5648 5643 5638 5634 5630 5626 5624 5624 5625 5627 5631 5635 5640 5645 5651 5657 5662 5667 5672 5675 5678 5681 5683 5684 5685 5685 5685 5685 5683 5682 5680 5677 5675 5672 5669 5665 5662
5662 5659 5654 5650 5644 5638 5632 5625 5618 5612 5607 5604 5602 5602 5603 5606 5610 5616 5621 5627 5634 5640 5647 5653 5658 5662 5666 5669 5671 5673 5674 5674 5674 5673 5672 5670 5668 5665 5662 5659 5655 5651 5647
5654 5649 5644 5638 5632 5624 5616 5607 5599 5591 5585 5581 5579 5580 5583 5587 5592 5598 5604 5611 5618 5625 5632 5639 5644 5649 5653 5657 5660 5662 5663 5663 5663 5662 5661 5659 5656 5653 5650 5646 5642 5637 5632
5645 5640 5634 5628 5621 5613 5603 5593 5583 5574 5567 5563 5562 5564 5567 5572 5577 5583 5590 5597 5605 5612 5619 5626 5632 5637 5642 5646 5649 5651 5652 5653 5653 5652 5650 5648 5644 5641 5637 5632 5627 5622 5616
5638 5632 5627 5620 5613 5604 5594 5584 5574 5565 5558 5553 5552 5554 5557 5561 5566 5572 5579 5586 5593 5601 5608 5615 5621 5627 5632 5636 5639 5641 5642 5642 5642 5641 5639 5636 5632 5628 5623 5618 5613 5607 5600
5631 5626 5621 5614 5608 5600 5590 5580 5570 5562 5555 5550 5548 5549 5551 5554 5559 5565 5571 5578 5585 5592 5599 5606 5612 5618 5623 5626 5629 5631 5632 5632 5631 5629 5627 5623 5619 5615 5610 5604 5598 5591 5584
5626 5621 5616 5610 5604 5597 5588 5579 5570 5562 5555 5551 5548 5548 5549 5552 5556 5560 5566 5572 5579 5586 5593 5599 5605 5610 5615 5618 5620 5621 5622 5621 5620 5618 5615 5611 5607 5602 5596 5589 5582 5575 5566
5623 5618 5612 5607 5602 5595 5588 5580 5572 5565 5559 5554 5551 5549 5550 5551 5554 5559 5564 5569 5575 5582 5588 5594 5599 5604 5607 5610 5612 5613 5612 5611 5609 5607 5603 5598 5593 5587 5582 5575 5568 5559 5550
5620 5615 5610 5606 5601 5595 5589 5583 5576 5569 5563 5558 5555 5554 5553 5554 5556 5560 5564 5569 5575 5580 5585 5590 5595 5599 5602 5604 5604 5604 5603 5601 5598 5595 5590 5586 5580 5574 5567 5561 5553 5544 5534
5617 5613 5609 5605 5600 5596 5591 5585 5580 5574 5569 5565 5561 5560 5559 5560 5562 5565 5568 5572 5577 5581 5585 5589 5592 5594 5596 5596 5596 5595 5593 5590 5587 5583 5578 5573 5566 5559 5552 5544 5536 5527 5517
5616 5612 5608 5604 5600 5597 5592 5588 5584 5580 5576 5572 5569 5568 5567 5567 5568 5570 5573 5575 5578 5581 5583 5586 5588 5589 5590 5589 5588 5586 5584 5580 5576 5571 5565 5559 5552 5544 5535 5527 5518 5508 5498
5614 5611 5608 5604 5601 5597 5594 5591 5587 5584 5581 5578 5575 5574 5573 5573 5574 5575 5576 5577 5579 5581 5582 5584 5584 5584 5583 5582 5580 5577 5574 5570 5565 5559 5553 5545 5537 5527 5518 5508 5498 5487 5477
5613 5610 5607 5604 5602 5598 5595 5593 5590 5587 5584 5582 5580 5578 5578 5577 5577 5577 5578 5578 5579 5580 5580 5580 5579 5578 5576 5574 5572 5568 5564 5559 5553 5546 5538 5529 5520 5509 5498 5487 5477 5467 5458
5611 5609 5607 5604 5602 5599 5596 5594 5591 5589 5587 5585 5583 5581 5580 5579 5579 5579 5578 5578 5578 5577 5576 5575 5574 5572 5569 5566 5563 5558 5553 5547 5540 5531 5522 5512 5501 5489 5478 5467 5457 5448 5441
5609 5607 5605 5603 5601 5599 5597 5594 5592 5590 5588 5586 5584 5583 5581 5580 5579 5578 5577 5576 5575 5573 5572 5570 5568 5565 5562 5558 5553 5547 5541 5534 5525 5516 5505 5494 5482 5471 5460 5450 5441 5435 5430
5607 5605 5603 5601 5600 5598 5596 5594 5592 5590 5588 5586 5584 5582 5580 5579 5578 5576 5575 5573 5571 5569 5567 5564 5561 5557 5553 5548 5542 5536 5528 5520 5510 5500 5488 5477 5466 5456 5446 5438 5431 5426 5422